User: anonymous   Login
Location: St. Malo Provincial Park
(49.3214°N, 96.9305°W)
Time: 16:12:07
(UTC-05:00)
Language:

Iridium 6 - Orbit

View from above orbital plane
View from above orbital plane
View from above satellite
View from above satellite

Ground track
Ground track

The orbit data is extracted from the following two-line orbital elements,

1 24794U 97020C   16182.31145416  .00000161  00000-0  50276-4 0  9999
2 24794  86.3981 106.0164 0002302  83.4959 276.6499 14.34220452  2761
Epoch (UTC): 30 June 2016 07:28:29
Eccentricity: 0.0002302
inclination: 86.3981°
perigee height: 776 km
apogee height: 779 km
right ascension of ascending node: 106.0164°
argument of perigee: 83.4959°
revolutions per day: 14.34220452
mean anomaly at epoch: 276.6499°
orbit number at epoch: 276

The dashed part of the orbit path shows where the satellite is in the earth's shadow,  

DLR